(293969) = 2007 TV51

Discovered at Kitt Peak on 2007-10-04 by Spacewatch.

Orbit

Orbit type: Main Belt

Note: WebGL enabled browser required.

epoch2023-02-25.0
epoch JD2460000.5
perihelion date2020-04-14.00346
perihelion JD2458953.50346
argument of perihelion (°)6.24488
ascending node (°)12.83598
inclination (°)3.91513
eccentricity0.0520505
perihelion distance (AU)2.4693627
Tisserand w.r.t. Jupiter3.4
ΔV w.r.t. Earth (km/sec)9.9
semimajor axis (AU)2.6049518
mean anomaly (°)245.44239
mean daily motion (°/day)0.23442520
aphelion distance (AU)2.741
period (years)4.2
P-vector [x]0.94511455
P-vector [y]0.29674550
P-vector [z]0.13675014
Q-vector [x]-0.32638688
Q-vector [y]0.83800012
Q-vector [z]0.43729555
absolute magnitude16.75
phase slope0.15
uncertainty0
referenceMPO 745323
observations used293
oppositions14
arc length (days)6670
first opposition used2005
last opposition used2023
residual rms (arc-secs)0.80
perturbers coarse indicatorM-v
perturbers precise indicator003Ek
first observation date used2005-03-16.0
last observation date used2023-06-20.0
computer nameMPCLINUX
JD of orbit computation2456819.620142
perihelion JD uncertainty (days)2.0177E-04
argument of perihelion uncertainty (°)7.3412E-05
ascending node uncertainty (°)5.8724E-05
inclination uncertainty (°)5.7643E-06
eccentricity uncertainty 5.4279E-08
perihelion distance uncertainty (AU)1.5381E-07
Minimum Orbit Intersection Distances (in AU)
for orbit epoch: 2460000.5, reference: E2023-M76
Mercury2.11044
Venus1.74572
Earth1.46912
Mars0.98524
Jupiter2.48108
Saturn6.4988
Uranus15.7209
Neptune27.3842

Observations

298 total observations over interval: 2005 03 16.33345 – 2023 06 20.483920
These data are available for download (format description).

Date (UT) J2000 RA J2000 Dec Magn Location Ref
2005 03 16.33345 11 22 45.01 +06 29 40.0 19.9 R G96 – Mt. Lemmon Survey MPS 229874
2005 03 16.34001 11 22 44.66 +06 29 41.9 21.0 R G96 – Mt. Lemmon Survey MPS 229874
2005 03 16.34657 11 22 44.29 +06 29 43.6 19.6 R G96 – Mt. Lemmon Survey MPS 229874
2005 03 16.35312 11 22 43.92 +06 29 45.3 19.8 R G96 – Mt. Lemmon Survey MPS 229874
2005 05 10.15857 10 59 49.67 +07 21 16.6 20.5 R G96 – Mt. Lemmon Survey MPS 229874
2005 05 10.16619 10 59 49.75 +07 21 15.6 21.1 R G96 – Mt. Lemmon Survey MPS 229874
2005 05 10.17383 10 59 49.86 +07 21 14.0 21.5 R G96 – Mt. Lemmon Survey MPS 229874
2005 05 10.18146 10 59 49.93 +07 21 13.1 21.2 R G96 – Mt. Lemmon Survey MPS 229874
2007 10 04.35727 02 23 39.94 +15 57 50.3   691 – Steward Observatory, Kitt Peak-Spacewatch MPS 220757
2007 10 04.37488 02 23 39.30 +15 57 48.5   691 – Steward Observatory, Kitt Peak-Spacewatch MPS 220757
2007 10 04.39252 02 23 38.44 +15 57 47.8   691 – Steward Observatory, Kitt Peak-Spacewatch MPS 220757
2007 10 08.25413 02 20 51.92 +15 52 14.8 20.2 V 691 – Steward Observatory, Kitt Peak-Spacewatch MPS 220757
2007 10 08.27175 02 20 51.09 +15 52 13.1 20.1 V 691 – Steward Observatory, Kitt Peak-Spacewatch MPS 220757
2007 10 08.28936 02 20 50.26 +15 52 11.4 20.2 V 691 – Steward Observatory, Kitt Peak-Spacewatch MPS 220757
2007 10 12.26069 02 17 39.33 +15 44 36.9 20.3 V 691 – Steward Observatory, Kitt Peak-Spacewatch MPS 223565
2007 10 12.27834 02 17 38.40 +15 44 34.9 20.1 V 691 – Steward Observatory, Kitt Peak-Spacewatch MPS 223565
2007 10 12.29599 02 17 37.59 +15 44 32.4 19.7 V 691 – Steward Observatory, Kitt Peak-Spacewatch MPS 223565
2007 10 14.33622 02 15 52.77 +15 39 57.6 19.8 V G96 – Mt. Lemmon Survey MPS 223565
2007 10 14.34777 02 15 52.16 +15 39 56.0 19.9 V G96 – Mt. Lemmon Survey MPS 223565
2007 10 14.35934 02 15 51.51 +15 39 54.3 19.3 V G96 – Mt. Lemmon Survey MPS 223565
2007 10 14.37098 02 15 50.86 +15 39 52.6 19.9 V G96 – Mt. Lemmon Survey MPS 223565
2007 11 11.17597 01 50 17.16 +14 12 07.3 20.2 V G96 – Mt. Lemmon Survey MPS 226950
2007 11 11.18218 01 50 16.83 +14 12 06.1 20.2 V G96 – Mt. Lemmon Survey MPS 226950
2007 11 11.18835 01 50 16.54 +14 12 04.9 20.1 V G96 – Mt. Lemmon Survey MPS 226950
2007 11 11.19443 01 50 16.22 +14 12 03.7 20.2 V G96 – Mt. Lemmon Survey MPS 226950
2009 01 19.42328 10 35 47.76 +13 37 44.3 21.0 V G96 – Mt. Lemmon Survey MPS 272702
2009 01 19.43034 10 35 47.54 +13 37 45.6 20.8 V G96 – Mt. Lemmon Survey MPS 272702
2009 01 19.45676 10 35 46.78 +13 37 50.7 20.5 V G96 – Mt. Lemmon Survey MPS 272702
2009 01 19.46384 10 35 46.53 +13 37 51.9 21.1 V G96 – Mt. Lemmon Survey MPS 272702
2009 01 30.33072 10 29 05.64 +14 17 52.2 20.1 V G96 – Mt. Lemmon Survey MPS 272702
2009 01 30.33189 10 29 05.56 +14 17 52.8 20.1 V G96 – Mt. Lemmon Survey MPS 272702
2009 01 30.33468 10 29 05.46 +14 17 53.3 20.1 V G96 – Mt. Lemmon Survey MPS 272702
2009 01 30.33590 10 29 05.38 +14 17 53.2 20.1 V G96 – Mt. Lemmon Survey MPS 272702
2009 01 30.33885 10 29 05.28 +14 17 54.4 20.3 V G96 – Mt. Lemmon Survey MPS 272702
2009 01 30.34009 10 29 05.28 +14 17 54.0 20.0 V G96 – Mt. Lemmon Survey MPS 272702
2009 01 30.34499 10 29 04.95 +14 17 55.8 20.5 V G96 – Mt. Lemmon Survey MPS 272702
2009 01 30.34623 10 29 04.95 +14 17 55.9 20.6 V G96 – Mt. Lemmon Survey MPS 272702
2009 03 01.26348 10 02 12.84 +16 20 23.7 20.2 V G96 – Mt. Lemmon Survey MPS 278726
2009 03 01.27035 10 02 12.48 +16 20 25.3 20.5 V G96 – Mt. Lemmon Survey MPS 278726
2009 03 01.27707 10 02 12.08 +16 20 26.6 20.4 V G96 – Mt. Lemmon Survey MPS 278726
2009 03 01.28394 10 02 11.68 +16 20 27.7 20.0 V G96 – Mt. Lemmon Survey MPS 278726
2009 03 24.22185 09 46 10.74 +16 59 42.1 20.7 V G96 – Mt. Lemmon Survey MPS 281328
2009 03 24.23019 09 46 10.56 +16 59 42.4 20.8 V G96 – Mt. Lemmon Survey MPS 281328
2009 03 24.23858 09 46 10.41 +16 59 42.2 20.8 V G96 – Mt. Lemmon Survey MPS 281328
2009 03 24.24692 09 46 10.09 +16 59 42.2 21.4 V G96 – Mt. Lemmon Survey MPS 281328
2010 05 19.490500 16 38 58.611 -27 12 28.74 20.63 r F51 – Pan-STARRS 1, Haleakala MPS 337391
2010 05 19.503138 16 38 57.880 -27 12 28.33 20.35 r F51 – Pan-STARRS 1, Haleakala MPS 337391
2010 06 16.23553 16 11 51.21 -26 34 02.4 19.9 V G96 – Mt. Lemmon Survey MPS 331950
2010 06 16.24137 16 11 50.89 -26 34 01.5 20.1 V G96 – Mt. Lemmon Survey MPS 331950
2010 06 16.24725 16 11 50.56 -26 34 01.3 20.1 V G96 – Mt. Lemmon Survey MPS 331950
2011 09 08.40747 00 46 59.61 +03 40 41.9   691 – Steward Observatory, Kitt Peak-Spacewatch MPS 390603
2011 09 08.42522 00 46 58.89 +03 40 39.5   691 – Steward Observatory, Kitt Peak-Spacewatch MPS 390603
2011 09 08.44296 00 46 58.19 +03 40 36.9   691 – Steward Observatory, Kitt Peak-Spacewatch MPS 390603
2011 09 09.30749 00 46 25.17 +03 38 26.9   691 – Steward Observatory, Kitt Peak-Spacewatch MPS 390603
2011 09 09.32521 00 46 24.49 +03 38 23.6   691 – Steward Observatory, Kitt Peak-Spacewatch MPS 390603
2011 09 09.34291 00 46 23.77 +03 38 21.2   691 – Steward Observatory, Kitt Peak-Spacewatch MPS 390603
2011 09 26.44065 00 32 49.192 +02 41 40.26 20.4 w F51 – Pan-STARRS 1, Haleakala MPS 394165
2011 09 26.46097 00 32 48.056 +02 41 35.57 20.3 w F51 – Pan-STARRS 1, Haleakala MPS 394165
2011 09 26.47541 00 32 47.254 +02 41 32.27 20.3 w F51 – Pan-STARRS 1, Haleakala MPS 394165
2011 09 28.32699 00 31 07.57 +02 34 23.2 19.9 V G96 – Mt. Lemmon Survey MPS 394165
2011 09 28.33500 00 31 07.10 +02 34 21.6 19.8 V G96 – Mt. Lemmon Survey MPS 394165
2011 09 28.34309 00 31 06.63 +02 34 19.6 19.9 V G96 – Mt. Lemmon Survey MPS 394165
2011 09 28.35112 00 31 06.20 +02 34 17.6 19.7 V G96 – Mt. Lemmon Survey MPS 394165
2011 09 29.85068 00 29 45.10 +02 28 28.5 18.4 R 461 – University of Szeged, Piszkesteto Stn. (Konkol MPS 394165
2011 09 29.85786 00 29 44.74 +02 28 26.7 19.1 R 461 – University of Szeged, Piszkesteto Stn. (Konkol MPS 394165
2011 09 29.86505 00 29 44.34 +02 28 25.2 18.4 R 461 – University of Szeged, Piszkesteto Stn. (Konkol MPS 394165
2011 09 29.87049 00 29 44.03 +02 28 24.0 18.6 R 461 – University of Szeged, Piszkesteto Stn. (Konkol MPS 394165
2011 09 29.87419 00 29 43.80 +02 28 23.0 19.0 R 461 – University of Szeged, Piszkesteto Stn. (Konkol MPS 394165
2011 09 29.87789 00 29 43.67 +02 28 21.4 18.6 R 461 – University of Szeged, Piszkesteto Stn. (Konkol MPS 394165
2011 10 16.15507 00 15 39.65 +01 29 37.8 20.2 V 691 – Steward Observatory, Kitt Peak-Spacewatch MPS 398059
2011 10 16.22261 00 15 36.37 +01 29 24.8 20.4 V 691 – Steward Observatory, Kitt Peak-Spacewatch MPS 398059
2011 10 16.29010 00 15 33.04 +01 29 12.3 20.3 V 691 – Steward Observatory, Kitt Peak-Spacewatch MPS 398059
2011 10 25.31831 00 09 19.974 +01 05 59.24 21.1 g F51 – Pan-STARRS 1, Haleakala MPS 398059
2011 10 25.33059 00 09 19.522 +01 05 57.97 21.0 g F51 – Pan-STARRS 1, Haleakala MPS 398059
2013 01 03.56820 09 09 40.511 +22 12 50.60 20.1 i F51 – Pan-STARRS 1, Haleakala MPS 449539
2013 01 03.58117 09 09 39.978 +22 12 53.32 20.1 i F51 – Pan-STARRS 1, Haleakala MPS 449539
2013 01 03.59492 09 09 39.404 +22 12 56.10 20.4 r F51 – Pan-STARRS 1, Haleakala MPS 449539
2013 01 03.60648 09 09 38.931 +22 12 58.81 20.5 r F51 – Pan-STARRS 1, Haleakala MPS 449539
2013 01 07.35400 09 07 02.11 +22 26 53.8 20.3 V 691 – Steward Observatory, Kitt Peak-Spacewatch MPS 450817
2013 01 07.37171 09 07 01.26 +22 26 57.3 20.6 V 691 – Steward Observatory, Kitt Peak-Spacewatch MPS 450817
2013 01 07.38943 09 07 00.44 +22 27 01.4 20.8 V 691 – Steward Observatory, Kitt Peak-Spacewatch MPS 450817
2013 01 14.11197 09 01 29.79 +22 53 01.3 19.7 R J04 – ESA Optical Ground Station, Tenerife MPS 452173
2013 01 14.12354 09 01 29.14 +22 53 04.1 19.9 R J04 – ESA Optical Ground Station, Tenerife MPS 452173
2013 01 14.13512 09 01 28.49 +22 53 06.8 20.1 R J04 – ESA Optical Ground Station, Tenerife MPS 452173
2013 01 14.14669 09 01 27.84 +22 53 09.3 19.7 R J04 – ESA Optical Ground Station, Tenerife MPS 452173
2013 01 20.27530 08 55 43.98 +23 16 37.8 20.3 V 691 – Steward Observatory, Kitt Peak-Spacewatch MPS 453131
2013 01 20.29299 08 55 42.90 +23 16 41.9 20.0 V 691 – Steward Observatory, Kitt Peak-Spacewatch MPS 453131
2013 01 20.31069 08 55 41.84 +23 16 45.9 20.1 V 691 – Steward Observatory, Kitt Peak-Spacewatch MPS 453131
